| time (UTC) | temp C | wind direction | speed KPH | gust KPH | rain 1hr cm | rain 24hr cm | rain mn cm | humidity % | barometer mb |
| 20260906164532 | 23 | 360 | 0.0 | 0.0 | 0.00 | 0.00 | 0.00 | 39 | 1017.5 |
| 20260906164033 | 23 | 360 | 0.0 | 0.0 | 0.00 | 0.00 | 0.00 | 39 | 1017.6 |
| 20260906163555 | 23 | 360 | 0.0 | 0.0 | 0.00 | 0.00 | 0.00 | 39 | 1017.7 |
| 20260906163116 | 23 | 360 | 0.0 | 0.0 | 0.00 | 0.00 | 0.00 | 39 | 1017.7 |
| 20260906162556 | 23 | 360 | 0.0 | 0.0 | 0.00 | 0.00 | 0.00 | 40 | 1017.8 |
| 20260906162117 | 22 | 360 | 0.0 | 0.0 | 0.00 | 0.00 | 0.00 | 40 | 1017.9 |
| 20260906161617 | 22 | 360 | 0.0 | 0.0 | 0.00 | 0.00 | 0.00 | 40 | 1017.9 |
| 20260906161037 | 22 | 360 | 0.0 | 0.0 | 0.00 | 0.00 | 0.00 | 40 | 1018.0 |
| 20260906160618 | 22 | 360 | 0.0 | 0.0 | 0.00 | 0.00 | 0.00 | 40 | 1018.1 |
| 20260906160057 | 22 | 360 | 0.0 | 0.0 | 0.00 | 0.00 | 0.00 | 41 | 1018.1 |
| 20260906155558 | 21 | 360 | 0.0 | 0.0 | 0.00 | 0.00 | 0.00 | 40 | 1018.2 |
| 20260906155058 | 21 | 360 | 0.0 | 0.0 | 0.00 | 0.00 | 0.00 | 40 | 1018.2 |
| 20260906154559 | 21 | 360 | 0.0 | 1.6 | 0.00 | 0.00 | 0.00 | 41 | 1018.1 |
| 20260906154040 | 20 | 360 | 0.0 | 1.6 | 0.00 | 0.00 | 0.00 | 42 | 1018.1 |
| 20260906153622 | 20 | 360 | 0.0 | 0.0 | 0.00 | 0.00 | 0.00 | 42 | 1018.2 |
| 20260906153102 | 20 | 360 | 0.0 | 0.0 | 0.00 | 0.00 | 0.00 | 42 | 1018.3 |
| 20260906152522 | 20 | 360 | 0.0 | 0.0 | 0.00 | 0.00 | 0.00 | 43 | 1018.2 |
| 20260906152024 | 19 | 360 | 0.0 | 0.0 | 0.00 | 0.00 | 0.00 | 43 | 1018.3 |
| 20260906151525 | 20 | 360 | 0.0 | 0.0 | 0.00 | 0.00 | 0.00 | 43 | 1018.3 |
| 20260906151027 | 20 | 360 | 0.0 | 0.0 | 0.00 | 0.00 | 0.00 | 42 | 1018.4 |
| 20260906150609 | 20 | 360 | 0.0 | 0.0 | 0.00 | 0.00 | 0.00 | 43 | 1018.6 |
| 20260906150049 | 18 | 360 | 0.0 | 0.0 | 0.00 | 0.00 | 0.00 | 44 | 1018.6 |
| 20260906145528 | 18 | 360 | 0.0 | 0.0 | 0.00 | 0.00 | 0.00 | 45 | 1018.6 |
| 20260906144530 | 17 | 360 | 0.0 | 0.0 | 0.00 | 0.00 | 0.00 | 47 | 1018.8 |
| 20260906144032 | 16 | 360 | 0.0 | 0.0 | 0.00 | 0.00 | 0.00 | 48 | 1018.8 |
| 20260906143613 | 16 | 360 | 0.0 | 0.0 | 0.00 | 0.00 | 0.00 | 48 | 1018.9 |
| 20260906143052 | 16 | 360 | 0.0 | 0.0 | 0.00 | 0.00 | 0.00 | 48 | 1018.8 |
| 20260906142552 | 16 | 360 | 0.0 | 0.0 | 0.00 | 0.00 | 0.00 | 49 | 1018.9 |
| 20260906142033 | 16 | 360 | 0.0 | 0.0 | 0.00 | 0.00 | 0.00 | 50 | 1018.8 |
| 20260906141534 | 15 | 360 | 0.0 | 0.0 | 0.00 | 0.00 | 0.00 | 51 | 1018.9 |
| 20260906141036 | 15 | 360 | 0.0 | 0.0 | 0.00 | 0.00 | 0.00 | 51 | 1018.9 |
| 20260906140540 | 15 | 360 | 0.0 | 0.0 | 0.00 | 0.00 | 0.00 | 52 | 1019.0 |
| 20260906140022 | 14 | 360 | 0.0 | 0.0 | 0.00 | 0.00 | 0.00 | 52 | 1019.0 |
| 20260906135523 | 14 | 360 | 0.0 | 0.0 | 0.00 | 0.00 | 0.00 | 52 | 1019.0 |
| 20260906135045 | 14 | 360 | 0.0 | 0.0 | 0.00 | 0.00 | 0.00 | 52 | 1019.0 |
| 20260906134525 | 13 | 360 | 0.0 | 0.0 | 0.00 | 0.00 | 0.00 | 54 | 1019.0 |
| 20260906134027 | 12 | 360 | 0.0 | 0.0 | 0.00 | 0.00 | 0.00 | 56 | 1018.9 |
| 20260906133528 | 12 | 360 | 0.0 | 0.0 | 0.00 | 0.00 | 0.00 | 57 | 1018.9 |
| 20260906133110 | 11 | 360 | 0.0 | 0.0 | 0.00 | 0.00 | 0.00 | 58 | 1018.9 |
| 20260906132550 | 11 | 360 | 0.0 | 4.8 | 0.00 | 0.00 | 0.00 | 59 | 1018.8 |
| 20260906132030 | 10 | 360 | 3.2 | 4.8 | 0.00 | 0.00 | 0.00 | 61 | 1018.8 |
| 20260906131532 | 10 | 360 | 3.2 | 4.8 | 0.00 | 0.00 | 0.00 | 61 | 1018.8 |
| 20260906131054 | 9 | 360 | 0.0 | 6.4 | 0.00 | 0.00 | 0.00 | 61 | 1018.7 |
| 20260906130554 | 9 | 360 | 1.6 | 8.0 | 0.00 | 0.00 | 0.00 | 61 | 1018.7 |
| 20260906130034 | 9 | 360 | 6.4 | 8.0 | 0.00 | 0.00 | 0.00 | 60 | 1018.7 |
| 20260906125535 | 9 | 360 | 0.0 | 6.4 | 0.00 | 0.00 | 0.00 | 60 | 1018.7 |
| 20260906125036 | 9 | 360 | 1.6 | 6.4 | 0.00 | 0.00 | 0.00 | 60 | 1018.6 |
| 20260906124558 | 10 | 360 | 3.2 | 6.4 | 0.00 | 0.00 | 0.00 | 59 | 1018.7 |
| 20260906124038 | 10 | 360 | 0.0 | 1.6 | 0.00 | 0.00 | 0.00 | 60 | 1018.6 |
| 20260906123523 | 10 | 360 | 0.0 | 1.6 | 0.00 | 0.00 | 0.00 | 59 | 1018.6 |
| 20260906123045 | 10 | 360 | 0.0 | 0.0 | 0.00 | 0.00 | 0.00 | 60 | 1018.7 |
| 20260906122623 | 10 | 360 | 0.0 | 6.4 | 0.00 | 0.00 | 0.00 | 60 | 1018.8 |
| 20260906122026 | 10 | 360 | 0.0 | 6.4 | 0.00 | 0.00 | 0.00 | 59 | 1018.6 |
| 20260906121548 | 10 | 360 | 0.0 | 1.6 | 0.00 | 0.00 | 0.00 | 59 | 1018.7 |
| 20260906121028 | 10 | 360 | 0.0 | 6.4 | 0.00 | 0.00 | 0.00 | 59 | 1018.7 |
| 20260906120549 | 10 | 360 | 4.8 | 6.4 | 0.00 | 0.00 | 0.00 | 59 | 1018.7 |
| 20260906120050 | 10 | 360 | 3.2 | 6.4 | 0.00 | 0.00 | 0.00 | 59 | 1018.7 |
| 20260906115048 | 10 | 360 | 1.6 | 9.7 | 0.00 | 0.00 | 0.00 | 58 | 1018.7 |
| 20260906114533 | 10 | 360 | 6.4 | 8.0 | 0.00 | 0.00 | 0.00 | 57 | 1018.9 |
| 20260906114055 | 11 | 360 | 0.0 | 3.2 | 0.00 | 0.00 | 0.00 | 57 | 1018.8 |
| 20260906113554 | 11 | 360 | 0.0 | 0.0 | 0.00 | 0.00 | 0.00 | 56 | 1018.7 |
| 20260906113035 | 11 | 360 | 0.0 | 0.0 | 0.00 | 0.00 | 0.00 | 56 | 1018.7 |
| 20260906112536 | 11 | 360 | 0.0 | 0.0 | 0.00 | 0.00 | 0.00 | 55 | 1018.8 |
| 20260906112038 | 11 | 360 | 0.0 | 0.0 | 0.00 | 0.00 | 0.00 | 55 | 1018.6 |
| 20260906111539 | 11 | 360 | 0.0 | 0.0 | 0.00 | 0.00 | 0.00 | 55 | 1018.6 |
| 20260906111041 | 11 | 360 | 0.0 | 1.6 | 0.00 | 0.00 | 0.00 | 55 | 1018.6 |
| 20260906110541 | 11 | 360 | 0.0 | 8.0 | 0.00 | 0.00 | 0.00 | 55 | 1018.6 |
| 20260906110022 | 11 | 360 | 0.0 | 8.0 | 0.00 | 0.00 | 0.00 | 56 | 1018.6 |
| 20260906105524 | 11 | 360 | 4.8 | 6.4 | 0.00 | 0.00 | 0.00 | 56 | 1018.6 |
| 20260906105025 | 11 | 360 | 0.0 | 6.4 | 0.00 | 0.00 | 0.00 | 56 | 1018.4 |
| 20260906104546 | 11 | 360 | 3.2 | 6.4 | 0.00 | 0.00 | 0.00 | 56 | 1018.3 |
| 20260906103525 | 12 | 360 | 4.8 | 6.4 | 0.00 | 0.00 | 0.00 | 55 | 1018.1 |
| 20260906103048 | 12 | 360 | 0.0 | 0.0 | 0.00 | 0.00 | 0.00 | 55 | 1018.1 |
| 20260906102528 | 12 | 360 | 0.0 | 0.0 | 0.00 | 0.00 | 0.00 | 55 | 1018.1 |
| 20260906102049 | 12 | 360 | 0.0 | 0.0 | 0.00 | 0.00 | 0.00 | 55 | 1018.0 |
| 20260906101530 | 11 | 360 | 0.0 | 0.0 | 0.00 | 0.00 | 0.00 | 56 | 1018.0 |
| 20260906101114 | 11 | 360 | 0.0 | 0.0 | 0.00 | 0.00 | 0.00 | 56 | 1018.0 |
| 20260906100532 | 11 | 360 | 0.0 | 6.4 | 0.00 | 0.00 | 0.00 | 57 | 1017.9 |
| 20260906100054 | 11 | 360 | 1.6 | 6.4 | 0.00 | 0.00 | 0.00 | 56 | 1017.9 |
| 20260906095535 | 11 | 360 | 0.0 | 8.0 | 0.00 | 0.00 | 0.00 | 56 | 1018.0 |
| 20260906095056 | 11 | 360 | 4.8 | 8.0 | 0.00 | 0.00 | 0.00 | 56 | 1017.9 |
| 20260906094617 | 11 | 360 | 4.8 | 6.4 | 0.00 | 0.00 | 0.00 | 57 | 1018.0 |
| 20260906094038 | 11 | 360 | 1.6 | 8.0 | 0.00 | 0.00 | 0.00 | 56 | 1018.0 |
| 20260906093558 | 11 | 360 | 4.8 | 8.0 | 0.00 | 0.00 | 0.00 | 55 | 1018.0 |
| 20260906093022 | 11 | 360 | 6.4 | 6.4 | 0.00 | 0.00 | 0.00 | 54 | 1017.9 |
| 20260906092525 | 12 | 360 | 0.0 | 0.0 | 0.00 | 0.00 | 0.00 | 53 | 1017.9 |
| 20260906092046 | 12 | 360 | 0.0 | 0.0 | 0.00 | 0.00 | 0.00 | 53 | 1017.8 |
| 20260906091547 | 12 | 360 | 0.0 | 6.4 | 0.00 | 0.00 | 0.00 | 54 | 1017.8 |
| 20260906091028 | 11 | 360 | 3.2 | 6.4 | 0.00 | 0.00 | 0.00 | 54 | 1017.8 |
| 20260906090529 | 11 | 360 | 3.2 | 6.4 | 0.00 | 0.00 | 0.00 | 54 | 1017.7 |
| 20260906090111 | 12 | 360 | 4.8 | 6.4 | 0.00 | 0.00 | 0.00 | 53 | 1017.8 |
| 20260906085551 | 12 | 360 | 4.8 | 6.4 | 0.00 | 0.00 | 0.00 | 52 | 1017.7 |
| 20260906084552 | 12 | 360 | 0.0 | 0.0 | 0.00 | 0.00 | 0.00 | 51 | 1017.7 |
| 20260906084054 | 13 | 360 | 0.0 | 0.0 | 0.00 | 0.00 | 0.00 | 51 | 1017.8 |
| 20260906083552 | 13 | 360 | 0.0 | 0.0 | 0.00 | 0.00 | 0.00 | 49 | 1017.8 |
| 20260906083050 | 14 | 360 | 0.0 | 0.0 | 0.00 | 0.00 | 0.00 | 49 | 1017.6 |
| 20260906082531 | 14 | 360 | 0.0 | 0.0 | 0.00 | 0.00 | 0.00 | 49 | 1017.6 |
| 20260906082114 | 14 | 360 | 0.0 | 0.0 | 0.00 | 0.00 | 0.00 | 48 | 1017.5 |
| 20260906081049 | 15 | 360 | 0.0 | 0.0 | 0.00 | 0.00 | 0.00 | 48 | 1017.5 |
| 20260906080548 | 15 | 360 | 0.0 | 0.0 | 0.00 | 0.00 | 0.00 | 48 | 1017.5 |
| 20260906080048 | 15 | 360 | 0.0 | 0.0 | 0.00 | 0.00 | 0.00 | 48 | 1017.5 |
| 20260906075532 | 15 | 360 | 0.0 | 0.0 | 0.00 | 0.00 | 0.00 | 48 | 1017.5 |
| 20260906075111 | 15 | 360 | 0.0 | 0.0 | 0.00 | 0.00 | 0.00 | 48 | 1017.4 |
| 20260906074534 | 15 | 360 | 0.0 | 4.8 | 0.00 | 0.00 | 0.00 | 49 | 1017.3 |
| 20260906074036 | 14 | 360 | 0.0 | 8.0 | 0.00 | 0.00 | 0.00 | 49 | 1017.3 |
| 20260906073557 | 14 | 360 | 4.8 | 9.7 | 0.00 | 0.00 | 0.00 | 49 | 1017.3 |
| 20260906073057 | 14 | 360 | 8.0 | 9.7 | 0.00 | 0.00 | 0.00 | 50 | 1017.2 |
| 20260906072539 | 14 | 360 | 1.6 | 9.7 | 0.00 | 0.00 | 0.00 | 49 | 1017.3 |
| 20260906072040 | 14 | 360 | 4.8 | 9.7 | 0.00 | 0.00 | 0.00 | 49 | 1017.3 |
| 20260906071601 | 14 | 360 | 4.8 | 6.4 | 0.00 | 0.00 | 0.00 | 49 | 1017.2 |
| 20260906070602 | 14 | 360 | 3.2 | 9.7 | 0.00 | 0.00 | 0.00 | 48 | 1017.2 |
| 20260906070042 | 15 | 360 | 6.4 | 8.0 | 0.00 | 0.00 | 0.00 | 47 | 1017.2 |
| 20260906065604 | 15 | 360 | 0.0 | 3.2 | 0.00 | 0.00 | 0.00 | 47 | 1017.1 |
| 20260906065105 | 15 | 360 | 0.0 | 4.8 | 0.00 | 0.00 | 0.00 | 47 | 1017.0 |
| 20260906064605 | 15 | 360 | 1.6 | 6.4 | 0.00 | 0.00 | 0.00 | 47 | 1017.9 |
| 20260906064027 | 15 | 360 | 3.2 | 6.4 | 0.00 | 0.00 | 0.00 | 46 | 1017.8 |
| 20260906063548 | 15 | 360 | 0.0 | 4.8 | 0.00 | 0.00 | 0.00 | 46 | 1017.6 |
| 20260906063028 | 16 | 360 | 0.0 | 6.4 | 0.00 | 0.00 | 0.00 | 45 | 1017.7 |
| 20260906062609 | 16 | 360 | 3.2 | 6.4 | 0.00 | 0.00 | 0.00 | 44 | 1017.6 |
| 20260906062050 | 16 | 360 | 0.0 | 6.4 | 0.00 | 0.00 | 0.00 | 44 | 1017.7 |
| 20260906061551 | 16 | 360 | 6.4 | 6.4 | 0.00 | 0.00 | 0.00 | 44 | 1017.5 |
| 20260906061034 | 16 | 360 | 0.0 | 6.4 | 0.00 | 0.00 | 0.00 | 44 | 1017.4 |
| 20260906060534 | 16 | 360 | 0.0 | 11.3 | 0.00 | 0.00 | 0.00 | 44 | 1017.4 |
| 20260906060035 | 16 | 360 | 8.0 | 11.3 | 0.00 | 0.00 | 0.00 | 44 | 1017.3 |
| 20260906055536 | 16 | 360 | 9.7 | 11.3 | 0.00 | 0.00 | 0.00 | 43 | 1017.3 |
| 20260906055057 | 17 | 360 | 8.0 | 9.7 | 0.00 | 0.00 | 0.00 | 43 | 1017.3 |
| 20260906054537 | 17 | 360 | 3.2 | 9.7 | 0.00 | 0.00 | 0.00 | 43 | 1017.4 |
| 20260906054100 | 17 | 360 | 8.0 | 9.7 | 0.00 | 0.00 | 0.00 | 42 | 1017.4 |
| 20260906053540 | 17 | 360 | 6.4 | 9.7 | 0.00 | 0.00 | 0.00 | 42 | 1017.4 |
| 20260906053122 | 17 | 360 | 4.8 | 9.7 | 0.00 | 0.00 | 0.00 | 42 | 1017.4 |
| 20260906052101 | 18 | 360 | 0.0 | 6.4 | 0.00 | 0.00 | 0.00 | 41 | 1017.4 |
| 20260906051040 | 18 | 360 | 0.0 | 6.4 | 0.00 | 0.00 | 0.00 | 41 | 1017.6 |
| 20260906050541 | 19 | 360 | 3.2 | 4.8 | 0.00 | 0.00 | 0.00 | 39 | 1017.5 |
| 20260906045541 | 20 | 360 | 0.0 | 4.8 | 0.00 | 0.00 | 0.00 | 39 | 1017.4 |
| 20260906045103 | 20 | 360 | 0.0 | 4.8 | 0.00 | 0.00 | 0.00 | 38 | 1017.4 |
| 20260906044544 | 20 | 360 | 0.0 | 3.2 | 0.00 | 0.00 | 0.00 | 38 | 1017.4 |
| 20260906044106 | 20 | 360 | 0.0 | 3.2 | 0.00 | 0.00 | 0.00 | 38 | 1017.3 |
| 20260906043525 | 21 | 360 | 0.0 | 0.0 | 0.00 | 0.00 | 0.00 | 38 | 1017.2 |
| 20260906043107 | 21 | 360 | 0.0 | 3.2 | 0.00 | 0.00 | 0.00 | 38 | 1017.3 |
| 20260906042627 | 21 | 360 | 0.0 | 3.2 | 0.00 | 0.00 | 0.00 | 37 | 1017.2 |
| 20260906042027 | 21 | 360 | 0.0 | 0.0 | 0.00 | 0.00 | 0.00 | 36 | 1017.2 |
| 20260906041528 | 21 | 360 | 0.0 | 0.0 | 0.00 | 0.00 | 0.00 | 36 | 1017.1 |
| 20260906041111 | 22 | 360 | 0.0 | 0.0 | 0.00 | 0.00 | 0.00 | 35 | 1017.1 |
| 20260906040609 | 22 | 360 | 0.0 | 0.0 | 0.00 | 0.00 | 0.00 | 35 | 1017.0 |
| 20260906040048 | 22 | 360 | 0.0 | 0.0 | 0.00 | 0.00 | 0.00 | 34 | 1016.9 |
| 20260906035048 | 22 | 360 | 0.0 | 3.2 | 0.00 | 0.00 | 0.00 | 33 | 1016.7 |
| 20260906034528 | 22 | 360 | 0.0 | 4.8 | 0.00 | 0.00 | 0.00 | 33 | 1016.7 |
| 20260906034030 | 22 | 360 | 0.0 | 8.0 | 0.00 | 0.00 | 0.00 | 32 | 1016.6 |
| 20260906033530 | 23 | 360 | 0.0 | 11.3 | 0.00 | 0.00 | 0.00 | 30 | 1016.6 |
| 20260906033051 | 23 | 360 | 6.4 | 11.3 | 0.00 | 0.00 | 0.00 | 29 | 1016.3 |
| 20260906032530 | 25 | 360 | 4.8 | 6.4 | 0.00 | 0.00 | 0.00 | 28 | 1016.2 |
| 20260906032051 | 25 | 360 | 1.6 | 9.7 | 0.00 | 0.00 | 0.00 | 27 | 1016.1 |
| 20260906031531 | 25 | 360 | 4.8 | 17.7 | 0.00 | 0.00 | 0.00 | 28 | 1016.0 |
| 20260906031033 | 25 | 360 | 9.7 | 17.7 | 0.00 | 0.00 | 0.00 | 27 | 1016.0 |
| 20260906030554 | 25 | 360 | 12.9 | 17.7 | 0.00 | 0.00 | 0.00 | 27 | 1015.9 |
| 20260906030035 | 23 | 360 | 8.0 | 19.3 | 0.00 | 0.00 | 0.00 | 28 | 1015.7 |
| 20260906025034 | 23 | 360 | 0.0 | 0.0 | 0.00 | 0.00 | 0.00 | 28 | 1015.2 |
| 20260906024035 | 23 | 360 | 0.0 | 0.0 | 0.00 | 0.00 | 0.00 | 28 | 1014.9 |
| 20260906023556 | 25 | 360 | 0.0 | 0.0 | 0.00 | 0.00 | 0.00 | 27 | 1014.8 |
| 20260906023118 | 25 | 360 | 0.0 | 0.0 | 0.00 | 0.00 | 0.00 | 27 | 1014.7 |
| 20260906022618 | 25 | 360 | 0.0 | 0.0 | 0.00 | 0.00 | 0.00 | 26 | 1014.6 |
| 20260906022057 | 25 | 360 | 0.0 | 0.0 | 0.00 | 0.00 | 0.00 | 26 | 1014.5 |
| 20260906021538 | 25 | 360 | 0.0 | 0.0 | 0.00 | 0.00 | 0.00 | 26 | 1014.5 |
| 20260906021040 | 25 | 360 | 0.0 | 4.8 | 0.00 | 0.00 | 0.00 | 25 | 1014.5 |
| 20260906020541 | 25 | 360 | 0.0 | 6.4 | 0.00 | 0.00 | 0.00 | 25 | 1014.4 |
| 20260906020103 | 26 | 360 | 4.8 | 6.4 | 0.00 | 0.00 | 0.00 | 25 | 1014.3 |
| 20260906015526 | 27 | 360 | 4.8 | 8.0 | 0.00 | 0.00 | 0.00 | 24 | 1014.2 |
| 20260906015028 | 28 | 360 | 4.8 | 11.3 | 0.00 | 0.00 | 0.00 | 22 | 1014.3 |
| 20260906014531 | 29 | 360 | 4.8 | 16.1 | 0.00 | 0.00 | 0.00 | 21 | 1014.2 |
| 20260906014113 | 30 | 360 | 8.0 | 16.1 | 0.00 | 0.00 | 0.00 | 21 | 1014.1 |
| 20260906013552 | 30 | 360 | 9.7 | 14.5 | 0.00 | 0.00 | 0.00 | 21 | 1014.1 |
| 20260906013032 | 30 | 360 | 6.4 | 19.3 | 0.00 | 0.00 | 0.00 | 21 | 1014.1 |
| 20260906012532 | 31 | 360 | 1.6 | 19.3 | 0.00 | 0.00 | 0.00 | 21 | 1014.1 |
| 20260906012034 | 31 | 360 | 1.6 | 16.1 | 0.00 | 0.00 | 0.00 | 20 | 1014.1 |
| 20260906011617 | 31 | 360 | 3.2 | 16.1 | 0.00 | 0.00 | 0.00 | 21 | 1014.1 |
| 20260906011036 | 31 | 360 | 1.6 | 16.1 | 0.00 | 0.00 | 0.00 | 21 | 1014.1 |
| 20260906010557 | 31 | 360 | 3.2 | 14.5 | 0.00 | 0.00 | 0.00 | 21 | 1014.1 |
| 20260906010037 | 31 | 360 | 1.6 | 14.5 | 0.00 | 0.00 | 0.00 | 21 | 1014.1 |
| 20260906005619 | 31 | 360 | 0.0 | 6.4 | 0.00 | 0.00 | 0.00 | 21 | 1014.1 |
| 20260906005038 | 31 | 360 | 0.0 | 16.1 | 0.00 | 0.00 | 0.00 | 21 | 1014.1 |
| 20260906004540 | 31 | 360 | 0.0 | 16.1 | 0.00 | 0.00 | 0.00 | 21 | 1013.9 |
| 20260906004042 | 32 | 360 | 0.0 | 0.0 | 0.00 | 0.00 | 0.00 | 23 | 1013.9 |
| 20260906003541 | 32 | 360 | 0.0 | 0.0 | 0.00 | 0.00 | 0.00 | 23 | 1014.0 |
| 20260906003044 | 32 | 360 | 0.0 | 11.3 | 0.00 | 0.00 | 0.00 | 23 | 1014.0 |
| 20260906002526 | 32 | 360 | 6.4 | 11.3 | 0.00 | 0.00 | 0.00 | 23 | 1014.0 |
| 20260906002027 | 32 | 360 | 0.0 | 9.7 | 0.00 | 0.00 | 0.00 | 23 | 1014.0 |
| 20260906001533 | 31 | 360 | 1.6 | 14.5 | 0.00 | 0.00 | 0.00 | 22 | 1014.0 |
| 20260906001034 | 31 | 360 | 8.0 | 19.3 | 0.00 | 0.00 | 0.00 | 23 | 1014.0 |
| 20260905235548 | 32 | 360 | 3.2 | 20.9 | 0.00 | 0.00 | 0.00 | 23 | 1014.0 |
| 20260905235049 | 32 | 360 | 0.0 | 16.1 | 0.00 | 0.00 | 0.00 | 22 | 1013.9 |
| 20260905234550 | 32 | 360 | 6.4 | 20.9 | 0.00 | 0.00 | 0.00 | 22 | 1014.1 |
| 20260905234051 | 32 | 360 | 3.2 | 20.9 | 0.00 | 0.00 | 0.00 | 23 | 1014.1 |
| 20260905233530 | 32 | 360 | 0.0 | 20.9 | 0.00 | 0.00 | 0.00 | 23 | 1014.1 |
| 20260905233032 | 32 | 360 | 4.8 | 20.9 | 0.00 | 0.00 | 0.00 | 23 | 1014.0 |
| 20260905232615 | 32 | 360 | 1.6 | 24.1 | 0.00 | 0.00 | 0.00 | 22 | 1014.0 |
| 20260905232034 | 32 | 360 | 8.0 | 24.1 | 0.00 | 0.00 | 0.00 | 23 | 1014.1 |
| 20260905231556 | 32 | 360 | 4.8 | 22.5 | 0.00 | 0.00 | 0.00 | 22 | 1014.1 |
| 20260905231057 | 32 | 360 | 6.4 | 22.5 | 0.00 | 0.00 | 0.00 | 22 | 1014.1 |
| 20260905230540 | 32 | 360 | 0.0 | 43.5 | 0.00 | 0.00 | 0.00 | 22 | 1014.1 |
| 20260905230041 | 32 | 360 | 16.1 | 43.5 | 0.00 | 0.00 | 0.00 | 23 | 1014.1 |
| 20260905225542 | 32 | 360 | 0.0 | 17.7 | 0.00 | 0.00 | 0.00 | 22 | 1014.1 |
| 20260905225103 | 32 | 360 | 1.6 | 17.7 | 0.00 | 0.00 | 0.00 | 22 | 1014.2 |
| 20260905224605 | 32 | 360 | 0.0 | 16.1 | 0.00 | 0.00 | 0.00 | 23 | 1014.2 |
| 20260905224104 | 32 | 360 | 4.8 | 16.1 | 0.00 | 0.00 | 0.00 | 23 | 1014.2 |
| 20260905223624 | 32 | 360 | 3.2 | 14.5 | 0.00 | 0.00 | 0.00 | 22 | 1014.3 |
| 20260905223043 | 32 | 360 | 0.0 | 14.5 | 0.00 | 0.00 | 0.00 | 23 | 1014.3 |
| 20260905222545 | 32 | 360 | 0.0 | 11.3 | 0.00 | 0.00 | 0.00 | 22 | 1014.3 |
| 20260905222025 | 32 | 360 | 0.0 | 20.9 | 0.00 | 0.00 | 0.00 | 22 | 1014.4 |
| 20260905221546 | 32 | 360 | 0.0 | 20.9 | 0.00 | 0.00 | 0.00 | 22 | 1014.4 |
| 20260905221048 | 32 | 360 | 0.0 | 11.3 | 0.00 | 0.00 | 0.00 | 23 | 1014.5 |
| 20260905220527 | 32 | 360 | 4.8 | 25.7 | 0.00 | 0.00 | 0.00 | 23 | 1014.7 |
| 20260905215548 | 32 | 360 | 6.4 | 22.5 | 0.00 | 0.00 | 0.00 | 23 | 1014.7 |
| 20260905215049 | 32 | 360 | 0.0 | 27.4 | 0.00 | 0.00 | 0.00 | 23 | 1014.7 |
| 20260905214551 | 32 | 360 | 17.7 | 27.4 | 0.00 | 0.00 | 0.00 | 23 | 1014.8 |
| 20260905214112 | 32 | 360 | 0.0 | 20.9 | 0.00 | 0.00 | 0.00 | 24 | 1014.9 |
| 20260905213546 | 32 | 360 | 6.4 | 22.5 | 0.00 | 0.00 | 0.00 | 23 | 1014.9 |
| 20260905213108 | 32 | 360 | 1.6 | 30.6 | 0.00 | 0.00 | 0.00 | 23 | 1014.8 |
| 20260905212528 | 32 | 360 | 11.3 | 17.7 | 0.00 | 0.00 | 0.00 | 23 | 1014.9 |
| 20260905212028 | 32 | 360 | 0.0 | 25.7 | 0.00 | 0.00 | 0.00 | 22 | 1015.0 |
| 20260905211550 | 32 | 360 | 3.2 | 25.7 | 0.00 | 0.00 | 0.00 | 23 | 1015.0 |
| 20260905211033 | 32 | 360 | 0.0 | 20.9 | 0.00 | 0.00 | 0.00 | 23 | 1015.1 |
| 20260905210553 | 31 | 360 | 3.2 | 24.1 | 0.00 | 0.00 | 0.00 | 23 | 1015.1 |
| 20260905210033 | 31 | 360 | 4.8 | 38.6 | 0.00 | 0.00 | 0.00 | 23 | 1015.1 |
| 20260905205034 | 32 | 360 | 4.8 | 24.1 | 0.00 | 0.00 | 0.00 | 25 | 1015.2 |
| 20260905204556 | 31 | 360 | 6.4 | 24.1 | 0.00 | 0.00 | 0.00 | 24 | 1015.3 |
| 20260905203556 | 31 | 360 | 8.0 | 11.3 | 0.00 | 0.00 | 0.00 | 24 | 1015.5 |
| 20260905203035 | 31 | 360 | 0.0 | 14.5 | 0.00 | 0.00 | 0.00 | 25 | 1015.4 |
| 20260905202056 | 31 | 360 | 0.0 | 9.7 | 0.00 | 0.00 | 0.00 | 25 | 1015.7 |
| 20260905201536 | 30 | 360 | 0.0 | 11.3 | 0.00 | 0.00 | 0.00 | 25 | 1015.7 |
| 20260905201059 | 30 | 360 | 4.8 | 12.9 | 0.00 | 0.00 | 0.00 | 26 | 1015.7 |
| 20260905200058 | 30 | 360 | 3.2 | 11.3 | 0.00 | 0.00 | 0.00 | 26 | 1015.8 |
| 20260905195559 | 30 | 360 | 4.8 | 9.7 | 0.00 | 0.00 | 0.00 | 26 | 1015.9 |
| 20260905195100 | 30 | 360 | 3.2 | 17.7 | 0.00 | 0.00 | 0.00 | 26 | 1016.0 |
| 20260905194540 | 30 | 360 | 11.3 | 17.7 | 0.00 | 0.00 | 0.00 | 26 | 1015.9 |
| 20260905194042 | 30 | 360 | 1.6 | 17.7 | 0.00 | 0.00 | 0.00 | 26 | 1016.1 |
| 20260905193603 | 30 | 360 | 9.7 | 16.1 | 0.00 | 0.00 | 0.00 | 27 | 1016.0 |
| 20260905193123 | 30 | 360 | 4.8 | 16.1 | 0.00 | 0.00 | 0.00 | 27 | 1016.1 |
| 20260905192604 | 30 | 360 | 8.0 | 16.1 | 0.00 | 0.00 | 0.00 | 27 | 1016.2 |
| 20260905192105 | 30 | 360 | 8.0 | 12.9 | 0.00 | 0.00 | 0.00 | 26 | 1016.3 |
| 20260905191606 | 29 | 360 | 1.6 | 9.7 | 0.00 | 0.00 | 0.00 | 27 | 1016.3 |
| 20260905191046 | 29 | 360 | 1.6 | 9.7 | 0.00 | 0.00 | 0.00 | 27 | 1016.4 |
| 20260905190525 | 28 | 360 | 0.0 | 8.0 | 0.00 | 0.00 | 0.00 | 27 | 1016.5 |
| 20260905190107 | 28 | 360 | 0.0 | 6.4 | 0.00 | 0.00 | 0.00 | 27 | 1016.5 |
| 20260905185547 | 28 | 360 | 1.6 | 8.0 | 0.00 | 0.00 | 0.00 | 27 | 1016.6 |
| 20260905185028 | 28 | 360 | 1.6 | 11.3 | 0.00 | 0.00 | 0.00 | 27 | 1016.8 |
| 20260905184549 | 28 | 360 | 4.8 | 11.3 | 0.00 | 0.00 | 0.00 | 28 | 1016.9 |
| 20260905184050 | 27 | 360 | 0.0 | 6.4 | 0.00 | 0.00 | 0.00 | 28 | 1016.9 |
| 20260905183611 | 27 | 360 | 0.0 | 6.4 | 0.00 | 0.00 | 0.00 | 28 | 1017.0 |
| 20260905183111 | 27 | 360 | 0.0 | 4.8 | 0.00 | 0.00 | 0.00 | 27 | 1017.1 |
| 20260905182551 | 27 | 360 | 0.0 | 9.7 | 0.00 | 0.00 | 0.00 | 27 | 1017.2 |
| 20260905182051 | 27 | 360 | 4.8 | 9.7 | 0.00 | 0.00 | 0.00 | 27 | 1017.2 |
| 20260905181530 | 27 | 360 | 0.0 | 8.0 | 0.00 | 0.00 | 0.00 | 27 | 1017.4 |
| 20260905181053 | 28 | 360 | 3.2 | 8.0 | 0.00 | 0.00 | 0.00 | 28 | 1017.5 |
| 20260905180553 | 27 | 360 | 0.0 | 0.0 | 0.00 | 0.00 | 0.00 | 27 | 1017.5 |
| 20260905180033 | 27 | 360 | 0.0 | 0.0 | 0.00 | 0.00 | 0.00 | 27 | 1017.5 |
| 20260905175615 | 27 | 360 | 0.0 | 0.0 | 0.00 | 0.00 | 0.00 | 28 | 1017.6 |
| 20260905175034 | 26 | 360 | 0.0 | 0.0 | 0.00 | 0.00 | 0.00 | 28 | 1017.7 |
| 20260905174555 | 26 | 360 | 0.0 | 1.6 | 0.00 | 0.00 | 0.00 | 29 | 1017.8 |
| 20260905174117 | 25 | 360 | 0.0 | 1.6 | 0.00 | 0.00 | 0.00 | 29 | 1017.8 |
| 20260905173555 | 26 | 360 | 0.0 | 1.6 | 0.00 | 0.00 | 0.00 | 28 | 1017.8 |
| 20260905173036 | 26 | 360 | 0.0 | 0.0 | 0.00 | 0.00 | 0.00 | 29 | 1017.9 |
| 20260905172539 | 25 | 360 | 0.0 | 0.0 | 0.00 | 0.00 | 0.00 | 28 | 1018.0 |
| 20260905172121 | 25 | 360 | 0.0 | 0.0 | 0.00 | 0.00 | 0.00 | 29 | 1018.0 |
| 20260905171600 | 25 | 360 | 0.0 | 0.0 | 0.00 | 0.00 | 0.00 | 29 | 1018.0 |
| 20260905171122 | 25 | 360 | 0.0 | 3.2 | 0.00 | 0.00 | 0.00 | 29 | 1018.2 |
| 20260905170621 | 25 | 360 | 0.0 | 3.2 | 0.00 | 0.00 | 0.00 | 29 | 1018.2 |
| 20260905170122 | 25 | 360 | 0.0 | 1.6 | 0.00 | 0.00 | 0.00 | 29 | 1018.2 |
| 20260905165541 | 24 | 360 | 0.0 | 4.8 | 0.00 | 0.00 | 0.00 | 31 | 1018.2 |
| 20260905165043 | 24 | 360 | 0.0 | 3.2 | 0.00 | 0.00 | 0.00 | 30 | 1018.2 |
| 20260905164605 | 24 | 360 | 0.0 | 0.0 | 0.00 | 0.00 | 0.00 | 30 | 1018.3 |